Voltar ao catálogo

STARLINK-1283

AtivoComunicaçõesVLEO
NORAD 45389·PAYLOAD·🇺🇸 United States

Lançado Mar 18, 2020 de Cape Canaveral Space Force Station

Loading…

Próximas Passagens (próximas 24 horas)

TLE

AtualizadoSource: CelesTrak SupGP

Época: Sep 14, 2026, 20:56 UTC

1 45389C 20019AF  26257.87270833  .00178890  00000+0  63376-3 0  2578
2 45389  53.0277 250.8420 0005385  57.4990  14.4761 15.88174667    18

Acompanhe STARLINK-1283 em tempo real com AllMySat

Download on the App Store